Weather History for KLOU - January, 2004

Change the Weather History Date:

Tuesday, January 27, 2004

  Actual Average Record
Temperature  
Mean Temperature 28 °F 35 °F  
Max Temperature 37 °F 43 °F 68 °F (1999)
Min Temperature 19 °F 27 °F -2 °F (1963)
Degree Days  
Heating Degree Days 37 30  
Month to date heating degree days 828  
Since 1 July heating degree days 2492  
Cooling Degree Days 0 0  
Month to date cooling degree days 0  
Year to date cooling degree days 0  
Moisture  
Dew Point 22 °F    
Average Humidity 82    
Maximum Humidity 100    
Minimum Humidity 65    
Precipitation  
Precipitation 0.05 in 0.10 in 1.51 in (2009)
Month to date precipitation 2.97  
Year to date precipitation 2.97  
Sea Level Pressure  
Sea Level Pressure 29.90 in    
Wind  
Wind Speed 10 mph (West)    
Max Wind Speed 21 mph    
Max Gust Speed 28 mph    
Visibility 5 miles    
Events Fog , Rain , Snow    
T = Trace of Precipitation, MM = Missing Value Source: NWS Daily Summary

Daily Weather History Graph

Daily Weather History Graph

Search for Another Location

Airport or City:

Trip Planner

Search our weather history database for the weather conditions in past years. The results will help you decide how hot, cold, wet, or windy it might be!

Date:

Astronomy

Jan. 27, 2004 Rise Set
Actual Time 7:51 AM EST 5:59 PM EST
Civil Twilight 7:23 AM EST 6:27 PM EST
Nautical Twilight 6:51 AM EST 6:59 PM EST
Astronomical Twilight 6:20 AM EST 7:30 PM EST
Moon 11:16 AM EST (1/27) No Moon Set
Length of Visible Light 11h 03m
Length of Day
10h 07m
Waxing Crescent, 35% of the Moon is Illuminated
Jan 27
Waxing Crescent
Jan 29
First Quarter
Feb 6
Full
Feb 13
Last Quarter
Feb 20
New

Hourly Weather History & Observations

Time (EST) Temp. Windchill Dew Point Humidity Pressure Visibility Wind Dir Wind Speed Gust Speed Precip Events Conditions
12:25 AM 37.4 °F - 37.4 °F 100% 29.69 in 0.2 mi Calm Calm - N/A Fog Fog
12:53 AM 37.9 °F - 37.9 °F 100% 29.69 in 0.2 mi Calm Calm - N/A Fog Fog
1:00 AM 37.4 °F - 37.4 °F 100% 29.67 in 0.2 mi Calm Calm - N/A Fog Fog
1:53 AM 37.0 °F 31.6 °F 37.0 °F 100% 29.70 in 0.5 mi WNW 6.9 mph - 0.00 in Fog , Rain Light Rain
2:28 AM 35.6 °F 29.2 °F 35.6 °F 100% 29.66 in 2.0 mi NNW 8.1 mph - 0.04 in Rain Light Rain
2:37 AM 35.6 °F 27.1 °F 35.6 °F 100% 29.67 in 4.0 mi NW 12.7 mph - 0.04 in Rain Light Rain
2:53 AM 35.1 °F 27.4 °F 35.1 °F 100% 29.73 in 8.0 mi West 10.4 mph - 0.04 in Rain Light Rain
3:28 AM 35.6 °F - 35.6 °F 100% 29.69 in 6.0 mi Calm Calm - 0.01 in   Overcast
3:53 AM 34.0 °F 24.6 °F 33.1 °F 96% 29.70 in 10.0 mi West 13.8 mph - 0.01 in Rain Light Rain
4:16 AM 33.8 °F 24.8 °F 32.0 °F 93% 29.71 in 10.0 mi WSW 12.7 mph - 0.00 in   Overcast
4:42 AM 33.8 °F 24.8 °F 32.0 °F 93% 29.72 in 2.0 mi West 12.7 mph - 0.00 in Snow Light Snow
4:46 AM 33.8 °F 25.8 °F 30.2 °F 87% 29.72 in 3.0 mi WSW 10.4 mph - 0.00 in Snow Light Snow
4:53 AM 33.1 °F 24.9 °F 30.9 °F 92% 29.73 in 6.0 mi WSW 10.4 mph - 0.00 in Snow Light Snow
5:03 AM 33.8 °F 26.4 °F 30.2 °F 87% 29.73 in 3.0 mi WSW 9.2 mph - 0.00 in Snow Light Snow
5:14 AM 33.8 °F 25.8 °F 30.2 °F 87% 29.75 in 7.0 mi WSW 10.4 mph - 0.00 in Snow Light Snow
5:17 AM 33.8 °F 24.8 °F 30.2 °F 87% 29.75 in 8.0 mi West 12.7 mph 18.4 mph 0.00 in Snow Light Snow
5:34 AM 32.0 °F 22.5 °F 30.2 °F 93% 29.75 in 10.0 mi WSW 12.7 mph - 0.00 in   Overcast
5:53 AM 30.9 °F 19.4 °F 28.0 °F 89% 29.77 in 10.0 mi West 17.3 mph 25.3 mph 0.00 in   Overcast
6:28 AM 30.2 °F 18.5 °F 24.8 °F 80% 29.78 in 10.0 mi West 17.3 mph - N/A   Overcast
6:53 AM 30.0 °F 18.7 °F 24.1 °F 79% 29.81 in 10.0 mi West 16.1 mph 23.0 mph N/A   Overcast
7:53 AM 28.0 °F 16.5 °F 21.9 °F 78% 29.84 in 10.0 mi West 15.0 mph 24.2 mph N/A   Overcast
8:53 AM 27.0 °F 15.2 °F 19.9 °F 75% 29.86 in 6.0 mi West 15.0 mph 24.2 mph 0.00 in Snow Light Snow
9:16 AM 26.6 °F 13.8 °F 19.4 °F 74% 29.85 in 2.0 mi WSW 17.3 mph 25.3 mph 0.00 in Snow Light Snow
9:24 AM 26.6 °F 15.7 °F 21.2 °F 80% 29.85 in 1.8 mi West 12.7 mph - 0.00 in Snow Light Snow
9:53 AM 25.0 °F 13.6 °F 21.9 °F 88% 29.88 in 0.5 mi WSW 12.7 mph 19.6 mph 0.00 in Fog , Snow Snow
10:08 AM 24.8 °F 11.9 °F 21.2 °F 86% 29.87 in 0.8 mi WSW 16.1 mph - 0.00 in Snow Light Snow
10:16 AM 24.8 °F 14.6 °F 21.2 °F 86% 29.87 in 2.5 mi West 10.4 mph 20.7 mph 0.00 in Snow Light Snow
10:23 AM 26.6 °F 14.3 °F 19.4 °F 74% 29.88 in 7.0 mi West 16.1 mph 23.0 mph 0.00 in Snow Light Snow
10:53 AM 27.0 °F 14.7 °F 18.0 °F 69% 29.90 in 10.0 mi West 16.1 mph 26.5 mph 0.00 in   Mostly Cloudy
11:23 AM 26.6 °F 14.7 °F 17.6 °F 69% 29.90 in 10.0 mi West 15.0 mph 25.3 mph N/A   Overcast
11:53 AM 27.0 °F 13.9 °F 18.0 °F 69% 29.91 in 3.0 mi WSW 18.4 mph 24.2 mph N/A Snow Light Snow Showers
12:06 PM 26.6 °F 14.3 °F 19.4 °F 74% 29.90 in 1.5 mi WSW 16.1 mph 23.0 mph 0.00 in Snow Light Snow
12:37 PM 26.6 °F 15.2 °F 19.4 °F 74% 29.90 in 4.0 mi WSW 13.8 mph - 0.00 in Snow Light Snow
12:53 PM 27.0 °F 15.2 °F 19.0 °F 72% 29.91 in 2.5 mi WSW 15.0 mph 21.9 mph 0.00 in Snow Light Snow
1:00 PM 26.6 °F 13.8 °F 19.4 °F 74% 29.90 in 1.2 mi West 17.3 mph 27.6 mph 0.00 in Snow Light Snow
1:09 PM 24.8 °F 10.7 °F 21.2 °F 86% 29.91 in 0.8 mi West 19.6 mph 25.3 mph 0.00 in Snow Light Snow
1:14 PM 26.6 °F 12.7 °F 19.4 °F 74% 29.91 in 2.0 mi West 20.7 mph 26.5 mph 0.00 in Snow Light Snow
1:20 PM 26.6 °F 13.4 °F 17.6 °F 69% 29.91 in 9.0 mi West 18.4 mph 27.6 mph 0.00 in Snow Light Snow
1:45 PM 24.8 °F 10.7 °F 17.6 °F 74% 29.92 in 4.0 mi West 19.6 mph 25.3 mph 0.00 in Snow Light Snow
1:53 PM 25.0 °F 11.3 °F 17.1 °F 72% 29.93 in 6.0 mi West 18.4 mph 25.3 mph 0.00 in Snow Light Snow
2:53 PM 24.1 °F 9.8 °F 17.1 °F 75% 29.94 in 2.0 mi West 19.6 mph 26.5 mph 0.00 in Snow Light Snow
3:09 PM 24.8 °F 11.5 °F 17.6 °F 74% 29.93 in 7.0 mi West 17.3 mph - 0.00 in Snow Light Snow
3:26 PM 23.0 °F 9.2 °F 15.8 °F 74% 29.94 in 6.0 mi West 17.3 mph 27.6 mph 0.00 in Snow Light Snow
3:53 PM 24.1 °F 10.6 °F 14.0 °F 65% 29.98 in 9.0 mi West 17.3 mph 23.0 mph 0.00 in   Overcast
4:28 PM 23.0 °F 13.1 °F 15.8 °F 74% 29.97 in 5.0 mi West 9.2 mph 19.6 mph 0.00 in Snow Light Snow
4:38 PM 23.0 °F 10.1 °F 15.8 °F 74% 29.98 in 8.0 mi West 15.0 mph - 0.00 in Snow Light Snow
4:53 PM 23.0 °F 10.6 °F 16.0 °F 74% 30.01 in 8.0 mi WSW 13.8 mph - 0.00 in Snow Light Snow
5:11 PM 21.2 °F 7.3 °F 15.8 °F 80% 30.00 in 4.0 mi West 16.1 mph 25.3 mph 0.00 in Snow Light Snow
5:37 PM 21.2 °F 7.3 °F 14.0 °F 74% 30.01 in 6.0 mi West 16.1 mph 21.9 mph 0.00 in Snow Light Snow
5:53 PM 21.9 °F 9.2 °F 14.0 °F 72% 30.04 in 8.0 mi West 13.8 mph 26.5 mph 0.00 in Snow Light Snow
6:53 PM 21.0 °F 8.6 °F 16.0 °F 81% 30.07 in 6.0 mi West 12.7 mph - 0.00 in Snow Light Snow
7:11 PM 21.2 °F 8.3 °F 17.6 °F 86% 30.06 in 3.0 mi West 13.8 mph 19.6 mph 0.00 in Snow Light Snow
7:29 PM 21.2 °F 7.3 °F 15.8 °F 80% 30.07 in 2.0 mi West 16.1 mph 19.6 mph 0.00 in Snow Light Snow
7:53 PM 21.0 °F 8.1 °F 16.0 °F 81% 30.10 in 5.0 mi West 13.8 mph - 0.00 in Snow Light Snow
8:53 PM 21.0 °F 8.1 °F 15.1 °F 78% 30.12 in 6.0 mi West 13.8 mph 23.0 mph 0.00 in Snow Light Snow
9:39 PM 19.4 °F 6.0 °F 15.8 °F 86% 30.11 in 4.0 mi West 13.8 mph - 0.00 in Snow Light Snow
9:53 PM 19.9 °F 6.7 °F 15.1 °F 81% 30.13 in 7.0 mi West 13.8 mph 26.5 mph 0.00 in Snow Light Snow
10:36 PM 19.4 °F 7.9 °F 15.8 °F 86% 30.12 in 2.5 mi West 10.4 mph - 0.00 in Snow Light Snow
10:44 PM 19.4 °F 7.9 °F 17.6 °F 93% 30.12 in 1.2 mi WNW 10.4 mph - 0.00 in Snow Light Snow
10:53 PM 19.9 °F 9.3 °F 17.1 °F 89% 30.14 in 1.0 mi WNW 9.2 mph - 0.00 in Snow Light Snow
11:11 PM 19.4 °F 6.6 °F 15.8 °F 86% 30.12 in 3.0 mi West 12.7 mph 20.7 mph 0.00 in Snow Light Snow
11:36 PM 19.4 °F 5.5 °F 12.2 °F 74% 30.13 in 5.0 mi West 15.0 mph - 0.00 in Snow Light Snow
11:53 PM 19.0 °F 4.5 °F 10.9 °F 71% 30.17 in 10.0 mi West 16.1 mph - 0.00 in Snow Light Snow